Simultaneous Nadir Overpasses (SNOs) Predictions

Prediction of SNOs between METOP-B and TERRA Satellite Orbit:

Table of predicted SNOs for the next 14.0 days since TLE Epoch: 7/18/2020
Index Date (METOP-B) Time (METOP-B) Lat,Lon (METOP-B) SZA (METOP-B ) Date (TERRA) Time (TERRA) Lat,Lon (TERRA) SZA (TERRA ) Distance(km) Time Diff (sec)
1 07/19/2020 22:38:13 81.32,-112.05 63.46 07/19/2020 22:38:39 81.32,-112.00 63.47 1.01 26
2 07/19/2020 23:28:52 -81.33, 56.01 116.45 07/19/2020 23:28:05 -81.33, 55.93 116.48 1.29 47
3 07/22/2020 18:12:33 81.33, -45.23 64.05 07/22/2020 18:12:54 81.33, -45.39 64.04 2.73 21
4 07/22/2020 19:03:14 -81.33, 122.05 115.95 07/22/2020 19:02:21 -81.32, 122.19 115.96 2.34 53
5 07/25/2020 13:46:53 81.33, 21.19 64.65 07/25/2020 13:47:08 81.33, 21.18 64.65 0.76 15
6 07/25/2020 14:37:33 -81.33,-171.14 115.31 07/25/2020 14:36:35 -81.33,-171.22 115.35 1.41 58
7 07/28/2020 09:21:15 81.32, 87.21 65.23 07/28/2020 09:21:24 81.32, 87.32 65.25 1.94 9
8 07/28/2020 10:11:54 -81.33,-104.73 114.67 07/28/2020 10:10:50 -81.34,-104.67 114.69 1.16 64
9 07/31/2020 04:55:36 81.32, 153.60 65.91 07/31/2020 04:55:39 81.32, 153.80 65.93 3.33 3
